Weather in Pimeno-Cherni

Russia / Volgograd Oblast     47°41′59″N   43°28′26″E
temp.,
°C
wind,
m/s
gust,
m/s
humid.,
%
clouds,
%
prec.,
mm/h
press.,
hPa
HPBL,
m
26 july, mon
mon2600:00+25ene511401 0.0 1018296
03:00+23ene5114258 0.0 1018251
06:00+23ene61041100 0.0 1019305
09:00+27e673398 0.0 1019614
12:00+32e44235 0.0 10193051
15:00+34ene441917 0.0 10173481
18:00+33ene55206 0.0 10172587
21:00+29ene91327100 0.0 1018886
27 july, tue
tue2700:00+26e81329100 0.0 1019602
03:00+25ene7132915 0.0 1019537
06:00+24ene61131100 0.0 1020418
09:00+26ene6928100 0.0 1020575
12:00+30ene5524100 0.0 10191835
15:00+30nne5423100 0.0 10182660
18:00+28ene5826100 0.0 1018399
21:00+24ne482991 0.0 1018158
28 july, wed
wed2800:00+23ene4733100 0.0 1019115
03:00+21ne2238100 0.0 101824
06:00+22nne353999 0.0 1019111
09:00+28ne44275 0.0 10181094
12:00+30ene342412 0.0 10173117
15:00+32nne242136 0.0 10163332
18:00+30ne1324100 0.0 1016225
21:00+27ne2228100 0.0 101624
29 july, thu
thu2900:00+25e44315 0.0 101641
03:00+23se22335 0.0 101513
06:00+23wsw2241100 0.0 101660
09:00+29w22285 0.0 1015678
12:00+32sw322129 0.0 10143040
15:00+33wnw32200 0.0 10133205
18:00+32nw43220 0.0 10121217
21:00+27wnw22280 0.0 101211
30 july, fri
fri3000:00+26wnw22300 0.0 101215
03:00+24w22350 0.0 101211
06:00+24w34420 0.0 101376
09:00+31wnw22260 0.0 1013725
12:00+33sw22200 0.0 10122959
15:00+35ssw22180 0.0 10103181
18:00+34wnw12190 0.0 10102837
21:00+29nnw33280 0.0 101019